Terminal Aerodrome Forecast
Issued by NWS Blacksburg, VA

Current Version | Previous Version | Text Only | Print | Product List | Glossary Off
Versions: 1 2 3 4 5 6 7 8 9 10 11 12 13 14 15 16 17 18 19 20 21 22 23 24 25 26 27 28 29 30 31 32 33 34 35 36 37 38 39 40 41 42 43 44 45 46 47 48 49 50

000
FTUS41 KRNK 301535 AAE
TAFBLF
TAF AMD
KBLF 301535Z 3016/3112 30007KT P6SM SCT006 BKN010 OVC030
     FM301630 VRB04KT P6SM SCT005 BKN018
     FM301700 31007KT P6SM BKN040
     FM302100 31009G19KT P6SM SCT050
     FM302300 30004KT P6SM SKC=

USA.gov is the U.S. government's official web portal to all federal, state and local government web resources and services.